This demonstration page uses our WeatherBlox Daily Observations layout. Learn more.

Left ArrowRight Arrow

Hourly Observations for December 9, 2018

Temp ( °F °C ) Dew Point ( °F °C ) Humidity (%) Winds ( mph kmh ) Pressure ( in mb ) Visibility ( mi km ) Precip ( " mm )
12:57 am 00:57 Clear 21 -6.1 17 -8.3 85 85 SW 10 17 30.38 1029 10 16 0.00 0.00
1:57 am 01:57 Clear 19 -7.2 15 -9.4 84 84 SW 7 11 30.38 1029 10 16 0.00 0.00
2:57 am 02:57 Clear 18 -7.8 15 -9.4 88 88 W 7 11 30.39 1029 10 16 0.00 0.00
3:57 am 03:57 Clear 15 -9.4 12 -11.1 88 88 NW 6 9 30.38 1029 10 16 0.00 0.00
4:57 am 04:57 Clear 15 -9.4 13 -10.6 91 91 WNW 9 15 30.38 1029 10 16 0.00 0.00
5:57 am 05:57 Clear 16 -8.9 14 -10 92 92 NW 12 19 30.40 1029 10 16 0.00 0.00
6:57 am 06:57 Clear 15 -9.4 12 -11.1 88 88 NW 7 11 30.41 1030 10 16 0.00 0.00
7:57 am 07:57 Sunny 14 -10 11 -11.7 88 88 NW 6 9 30.41 1030 10 16 0.00 0.00
8:57 am 08:57 Sunny 23 -5 17 -8.3 78 78 Calm 30.41 1030 10 16 0.00 0.00
9:57 am 09:57 Sunny 28 -2.2 22 -5.6 78 78 WNW 6 9 30.41 1030 10 16 0.00 0.00
10:57 am 10:57 Sunny 33 0.6 19 -7.2 56 56 NW 7 11 30.41 1030 10 16 0.00 0.00
11:57 am 11:57 Sunny 30 -1.1 20 -6.7 66 66 WNW 8 13 30.40 1030 10 16 0.00 0.00
12:57 pm 12:57 Sunny 33 0.6 18 -7.8 54 54 NW 10 17 30.37 1028 10 16 0.00 0.00
1:57 pm 13:57 Sunny 34 1.1 20 -6.7 56 56 NW 8 13 30.36 1028 10 16 0.00 0.00
2:57 pm 14:57 Sunny 33 0.6 19 -7.2 56 56 NNW 8 13 30.37 1028 10 16 0.00 0.00
3:57 pm 15:57 Sunny 31 -0.6 19 -7.2 61 61 NNW 9 15 30.38 1029 10 16 0.00 0.00
4:57 pm 16:57 Sunny 28 -2.2 18 -7.8 66 66 NW 5 7 30.39 1029 10 16 0.00 0.00
5:57 pm 17:57 Clear 26 -3.3 17 -8.3 69 69 NW 7 11 30.40 1029 10 16 0.00 0.00
6:57 pm 18:57 Clear 23 -5 16 -8.9 74 74 NNW 5 7 30.40 1030 10 16 0.00 0.00
7:57 pm 19:57 Clear 20 -6.7 15 -9.4 81 81 NNW 3 6 30.41 1030 10 16 0.00 0.00
8:57 pm 20:57 Clear 17 -8.3 14 -10 88 88 WNW 3 6 30.40 1030 10 16 0.00 0.00
9:57 pm 21:57 Clear 15 -9.4 12 -11.1 88 88 WNW 6 9 30.40 1029 10 16 0.00 0.00
10:57 pm 22:57 Clear 14 -10 11 -11.7 88 88 W 6 9 30.38 1029 10 16 0.00 0.00
11:57 pm 23:57 Clear 15 -9.4 12 -11.1 88 88 W 5 7 30.37 1028 10 16 0.00 0.00

Powered by AerisWeather